Change the Weather History Date:

Monday, March 25, 2013

  Actual Average Record
Temperature  
Mean Temperature 48 °F -  
Max Temperature 60 °F 70 °F 85 °F (1975)
Min Temperature 38 °F 52 °F 36 °F (1968)
Degree Days  
Heating Degree Days 16    
Moisture  
Dew Point 26 °F    
Average Humidity 44    
Maximum Humidity 71    
Minimum Humidity 21    
Precipitation  
Precipitation 0.00 in - - ()
Sea Level Pressure  
Sea Level Pressure 30.12 in    
Wind  
Wind Speed 10 mph (NNW)    
Max Wind Speed 18 mph    
Max Gust Speed 28 mph    
Visibility 10 miles    
Events      
Averages and records for this station are not official NWS values.
T = Trace of Precipitation, MM = Missing Value Source: NWS Daily Summary

Daily Weather History Graph

Daily Weather History Graph

Search for Another Location

Airport or City:

Trip Planner

Search our weather history database for the weather conditions in past years. The results will help you decide how hot, cold, wet, or windy it might be!

Date:

Astronomy

Mar. 25, 2013 Rise Set
Actual Time 6:53 AM CDT 7:10 PM CDT
Civil Twilight 6:29 AM CDT 7:34 PM CDT
Nautical Twilight 6:00 AM CDT 8:02 PM CDT
Astronomical Twilight 5:32 AM CDT 8:31 PM CDT
Moon 5:45 PM CDT (3/25) 5:30 AM CDT (3/25)
Length of Visible Light 13h 05m
Length of Day
12h 17m
Waxing Gibbous, 96% of the Moon is Illuminated
Mar 25
Waxing Gibbous
Mar 27
Full
Apr 2
Last Quarter
Apr 10
New
Apr 18
First Quarter

Hourly Weather History & Observations

Time (CDT) Temp. Windchill Dew Point Humidity Pressure Visibility Wind Dir Wind Speed Gust Speed Precip Events Conditions
12:58 AM 47.7 °F - 32.7 °F 56% 30.00 in 10.0 mi Variable 4.6 mph - N/A   Clear
1:58 AM 45.9 °F 42.3 °F 32.5 °F 60% 30.03 in 10.0 mi NW 6.9 mph - N/A   Clear
2:58 AM 44.2 °F 39.7 °F 31.6 °F 61% 30.04 in 10.0 mi NNW 8.1 mph - N/A   Clear
3:58 AM 42.4 °F 38.1 °F 30.2 °F 62% 30.05 in 10.0 mi NNW 6.9 mph - N/A   Clear
4:58 AM 40.8 °F 37.8 °F 29.3 °F 64% 30.05 in 10.0 mi Variable 4.6 mph - N/A   Clear
5:58 AM 39.6 °F 34.7 °F 29.3 °F 67% 30.08 in 10.0 mi NNW 6.9 mph - N/A   Clear
6:58 AM 38.3 °F 34.8 °F 29.5 °F 71% 30.11 in 10.0 mi Variable 4.6 mph - N/A   Clear
7:58 AM 39.2 °F 31.6 °F 30.2 °F 70% 30.14 in 10.0 mi NNW 12.7 mph - N/A   Clear
8:58 AM 42.1 °F 33.6 °F 29.1 °F 60% 30.16 in 10.0 mi NNW 18.4 mph 23.0 mph N/A   Clear
9:58 AM 45.5 °F 39.6 °F 28.2 °F 51% 30.16 in 10.0 mi North 12.7 mph - N/A   Clear
10:58 AM 49.3 °F - 26.4 °F 41% 30.17 in 10.0 mi NNW 13.8 mph - N/A   Clear
11:58 AM 53.2 °F - 24.1 °F 32% 30.17 in 10.0 mi North 16.1 mph 23.0 mph N/A   Clear
12:58 PM 55.6 °F - 22.6 °F 28% 30.14 in 10.0 mi North 18.4 mph 27.6 mph N/A   Clear
1:58 PM 57.6 °F - 21.0 °F 24% 30.12 in 10.0 mi NNW 17.3 mph 24.2 mph N/A   Clear
2:58 PM 59.7 °F - 20.8 °F 22% 30.10 in 10.0 mi NW 17.3 mph 26.5 mph N/A   Clear
3:58 PM 59.4 °F - 21.7 °F 23% 30.08 in 10.0 mi NNW 17.3 mph - N/A   Clear
4:00 PM 59.0 °F - 21.2 °F 23% 30.07 in 10.0 mi NW 15.0 mph - N/A   Clear
4:58 PM 59.4 °F - 18.7 °F 21% 30.07 in 10.0 mi NNW 12.7 mph 23.0 mph N/A   Clear
5:58 PM 57.9 °F - 20.5 °F 23% 30.10 in 10.0 mi NW 16.1 mph 25.3 mph N/A   Clear
6:58 PM 55.6 °F - 20.8 °F 26% 30.13 in 10.0 mi NNW 12.7 mph 20.7 mph N/A   Clear
7:58 PM 52.9 °F - 23.7 °F 32% 30.16 in 10.0 mi NNW 9.2 mph - N/A   Clear
8:58 PM 50.4 °F - 25.7 °F 38% 30.19 in 10.0 mi North 5.8 mph - N/A   Clear
9:58 PM 48.7 °F - 26.2 °F 42% 30.22 in 10.0 mi North 5.8 mph - N/A   Clear
10:58 PM 47.3 °F - 27.3 °F 46% 30.24 in 10.0 mi North 9.2 mph - N/A   Clear
11:58 PM 45.1 °F 41.4 °F 26.8 °F 49% 30.25 in 10.0 mi North 6.9 mph - N/A   Clear